Location: Cicognara
(44.9500°N, 10.4667°E)
Time: 09:17:30
(UTC+00:00)

Cosmos 1825 - Pass Details

Date: 20 June 2021
Orbit: 501 x 506 km, 82.5° (Epoch: 04 August)

Event Time Altitude Azimuth Distance (km) Brightness Sun altitude
Exits shadow 23:54:25 50° 111° (ESE) 649 2.5 -21.2°
Maximum altitude 23:54:40 52° 95° (E) 639 2.6 -21.2°
Drops below altitude 10° 23:58:21 10° 18° (NNE) 1,728 6.0 -21.1°
Sets 00:00:31 0° 14° (NNE) 2,617 7.4 -21.0°
